Preview of NWS' New Version of Forecast
This preview is not operational and should not be used for support decisions.

Regional Weather Roundup (RWR)

Issued by National Weather Service (NWS)

                            
000
ASUS45 KABQ 171901
RWRNM 
NEW MEXICO REGIONAL WEATHER ROUNDUP
NATIONAL WEATHER SERVICE ALBUQUERQUE NM
100 PM MDT WED APR 17 2019

NOTE: "FAIR" MEANS FEW OR NO CLOUDS BELOW 12,000 FEET AGL WITH NO
       SIGNIFICANT WEATHER OR OBSTRUCTIONS TO VISION.

      THIS PRODUCT IS RELEASED AS TWO VERSIONS.  ONE VERSION NEAR
      THE TOP OF THE HOUR CONTAINING PRELIMINARY DATA FROM ALBUQUERQUE
      AND OTHER STATIONS.  A FINAL VERSION WITH ADDITIONAL DATA IS 
      ISSUED ABOUT 10 MINUTES AFTER THE HOUR.
 
NMZ501-503-504-510>518-172000-
NORTHWEST PLATEAU/NORTHCENTRAL MOUNTAINS
  
CITY           SKY/WX    TMP DP  RH WIND       PRES   REMARKS
FARMINGTON     PTSUNNY   64  34  32 W17G29    29.90F                  
LOS ALAMOS       N/A     58  28  31 N9G22     29.87F                  
SANTA FE       PTSUNNY   62  30  29 N14G22    29.83F                  
TAOS           PTSUNNY   57  29  34 N14G26    29.90F                  
ANGEL FIRE     LGT SNOW  36  33  88 E16G30    30.01R VSB 3/4 WCI  26  

$$
NMZ402-403-502-505>509-172000-
WESTCENTRAL MOUNTAINS/SOUTHWEST MOUNTAINS
  
CITY           SKY/WX    TMP DP  RH WIND       PRES   REMARKS
GALLUP         CLOUDY    52  37  56 W5        30.00S                  
GRANTS         PTSUNNY   50  43  76 NW24      29.99F                  
SILVER CITY    PTSUNNY   52  42  66 W26       30.00F                  

$$
NMZ407-409-411-412-172000-
SOUTHERN DESERTS
  
CITY           SKY/WX    TMP DP  RH WIND       PRES   REMARKS
DEMING         FAIR      57  42  57 W31G40    29.98S                  
LAS CRUCES     FAIR      62  36  37 W26G36    29.94F                  
ALAMOGORDO     PTSUNNY   61  41  48 SW15      29.90F                  
T OR C         HVY RAIN  54  42  64 N12G21    29.90S                  

$$
NMZ519>523-172000-
CENTRAL VALLEYS/CENTRAL HIGHLANDS
  
CITY           SKY/WX    TMP DP  RH WIND       PRES   REMARKS
ALBUQUERQUE    PTSUNNY   52  43  71 S15       29.89F                  
DOUBLE EAGLE   CLOUDY    52  43  71 W8        29.89F                  
MORIARTY ARPT  FAIR      57  43  58 NW24G30   29.86F                  
CLINES CORNERS FAIR      58  29  33 E31G40    29.85S                  
BELEN          CLOUDY    53  42  66 W9        29.90F                  
SOCORRO        NOT AVBL                                               

$$
NMZ524>526-539-540-172000-
SOUTHCENTRAL MOUNTAINS
  
CITY           SKY/WX    TMP DP  RH WIND       PRES   REMARKS
RUIDOSO        PTSUNNY   50  34  53 W18G24    29.90F                  

$$
NMZ527>531-172000-
NORTHEAST HIGHLANDS/NORTHEAST PLAINS
  
CITY           SKY/WX    TMP DP  RH WIND       PRES   REMARKS
LAS VEGAS      FAIR      54  33  45 E20G29    29.89S                  
RATON          LGT RAIN  53  37  54 N15G23    29.90F                  
CLAYTON        PTSUNNY   62  34  35 N29G39    29.83F                  

$$
NMZ532>537-172000-
EASTCENTRAL PLAINS
  
CITY           SKY/WX    TMP DP  RH WIND       PRES   REMARKS
SANTA ROSA     FAIR      66  35  31 E25G32    29.78F                  
TUCUMCARI      FAIR      67  47  48 NE10      29.76F                  
CANNON AFB     CLOUDY    66  31  27 N16       29.77F                  
CLOVIS AIRPORT CLOUDY    67  31  26 NE9       29.77F                  

$$
NMZ028-029-538-172000-
SOUTHEAST PLAINS
  
CITY           SKY/WX    TMP DP  RH WIND       PRES   REMARKS
ROSWELL        CLOUDY    67  37  33 W20G30    29.75F                  
ARTESIA        FAIR      72  36  26 SW30G37   29.77F                  
CARLSBAD       FAIR      70  32  24 W36G44    29.80F                  
HOBBS          MOSUNNY   72  32  23 W25G33    29.81F                  


$$